KALPANA-1

operational
NORAD ID: 27525 Int'l Des: 2002-043 Owner: ISRO Country: IN
HEOCIRCULAR

关于 KALPANA-1

正在加载描述...

实时位置

正在加载3D地球...

即将过境

高度历史

Altitude vs Time

uPlot chart will show altitude changes over time

两行轨道根数

1 27525U 02043A 26073.27254356 -.00000135 00000-0 00000-0 0 9992
2 27525 12.9030 33.0663 0004589 159.1523 24.0548 0.98338203 85553
Epoch: Mar 14, 2026 • Age: 27 hours

当前状态

高度 36328.0 km
速度 3.06 km/s
星下点 -7.64°S, 62.12°W
发射日期 Sep 12, 2002
运行时间 23.5 years
类型 other

技术详情

分类 Payload
质量 1060.00 kg
干质量 560.00 kg
总质量 1060.00 kg
长度 2.00 m
直径 2.00 m
跨度 5.00 m
形状 Box + Pan
制造商 ISRO
平台类型 I2K
阶段状态 In Orbit
所有者/国家 ISRO/IN

大型星座

Loading constellations...